Tracking 35274 objects as of 10-Sep-2026
HD Live streaming from Space Station
objects crossing your sky now

STARLINK-30570

Track STARLINK-30570 now!
10-day predictions
STARLINK-30570 is classified as:


NORAD ID: 58095
Int'l Code: 2023-160W
Launch date: October 18, 2023
Source: United States (US)
Launch site: AIR FORCE EASTERN TEST RANGE (AFETR)
Your satellite tracking list
Your tracking list is empty




NASA's NSSDC Master Catalog

Two Line Element Set (TLE):
1 58095U 23160W   26252.93063646 -.00000046  00000-0  78602-5 0  9992
2 58095  43.0022 117.3425 0001079 259.3036 100.7694 15.27573761161120
Source of the keplerian elements: AFSPC